< < Back
Terminal Aerodrome Forecast


Current Version              Previous Versions:   1  2  3  4  5  6  7  8  9  

Terminal Aerodrome Forecast

554
FTUS42 KTAE 300543
TAFVLD
TAF
KVLD 300543Z 3006/0106 18003KT P6SM SCT040 BKN250
      TEMPO 3009/3012 4SM BR
     FM301800 20005KT P6SM VCTS BKN035CB OVC150
     FM302000 19008KT 4SM -TSRA BKN030CB OVC100
     FM010000 18007KT P6SM SCT030 BKN150=



Latest METAR

150
SAUS70 KWBC 300600 RRB
MTRVLD
METAR KVLD 300553Z AUTO 00000KT 10SM CLR 23/23 A2998 RMK AO2 SLP157
60000 T02330228 10244 20228 56005


USA.gov is the U.S. government's official web portal to all federal, state and local government web resources and services.